Terminal Aerodrome Forecast
Issued by NWS Lake Charles, LA

Home | Current Version | Previous Version | Text Only | Print | Product List | Glossary On
Versions: 1 2 3 4 5 6 7 8 9 10 11 12 13 14 15 16 17 18 19
000
FTUS44 KLCH 011500 AAB
TAFLFT
TAF AMD
KLFT 011558Z 0116/0212 16005KT P6SM VCSH BKN007 BKN120
     FM011700 16009KT P6SM VCSH SCT025 BKN050
     FM012300 15006KT P6SM FEW025 SCT100
     FM020900 00000KT 4SM BR FEW008 SCT015=

USA.gov is the U.S. government's official web portal to all federal, state and local government web resources and services.